Year,Month,Day,Hour,Minute,Value (Times are PST for temperature in C)
2013,09,26,00,00,10.80
2013,09,26,00,01,10.90
2013,09,26,00,02,10.90
2013,09,26,00,03,10.80
2013,09,26,00,04,10.80
2013,09,26,00,05,10.80
2013,09,26,00,06,10.80
2013,09,26,00,07,10.80
2013,09,26,00,08,10.80
2013,09,26,00,09,10.80
2013,09,26,00,10,10.80
2013,09,26,00,11,10.80
2013,09,26,00,12,10.80
2013,09,26,00,13,10.80
2013,09,26,00,14,10.80
2013,09,26,00,15,10.80
2013,09,26,00,16,10.80
2013,09,26,00,17,10.80
2013,09,26,00,18,10.80
2013,09,26,00,19,10.80
2013,09,26,00,20,10.80
2013,09,26,00,21,10.80
2013,09,26,00,22,10.80
2013,09,26,00,23,10.80
2013,09,26,00,24,10.70
2013,09,26,00,25,10.70
2013,09,26,00,26,10.70
2013,09,26,00,27,10.70
2013,09,26,00,28,10.60
2013,09,26,00,29,10.60
2013,09,26,00,30,10.50
2013,09,26,00,31,10.40
2013,09,26,00,32,10.20
2013,09,26,00,33,10.10
2013,09,26,00,34,9.90
2013,09,26,00,35,9.80
2013,09,26,00,36,9.70
2013,09,26,00,37,9.60
2013,09,26,00,38,9.40
2013,09,26,00,39,9.30
2013,09,26,00,40,9.20
2013,09,26,00,41,9.10
2013,09,26,00,42,9.00
2013,09,26,00,43,8.90
2013,09,26,00,44,8.90
2013,09,26,00,45,8.90
2013,09,26,00,46,8.80
2013,09,26,00,47,8.80
2013,09,26,00,48,8.80
2013,09,26,00,49,8.70
2013,09,26,00,50,8.60
2013,09,26,00,51,8.60
2013,09,26,00,52,8.50
2013,09,26,00,53,8.40
2013,09,26,00,54,8.30
2013,09,26,00,55,8.20
2013,09,26,00,56,8.20
2013,09,26,00,57,8.20
2013,09,26,00,58,8.20
2013,09,26,00,59,8.20
2013,09,26,01,00,8.20
2013,09,26,01,01,8.20
2013,09,26,01,02,8.20
2013,09,26,01,03,8.30
2013,09,26,01,04,8.30
2013,09,26,01,05,8.40
2013,09,26,01,06,8.50
2013,09,26,01,07,8.60
2013,09,26,01,08,8.70
2013,09,26,01,09,8.80
2013,09,26,01,10,8.80
2013,09,26,01,11,8.70
2013,09,26,01,12,8.70
2013,09,26,01,13,8.50
2013,09,26,01,14,8.40
2013,09,26,01,15,8.40
2013,09,26,01,16,8.30
2013,09,26,01,17,8.20
2013,09,26,01,18,8.10
2013,09,26,01,19,8.10
2013,09,26,01,20,8.00
2013,09,26,01,21,7.90
2013,09,26,01,22,7.80
2013,09,26,01,23,7.70
2013,09,26,01,24,7.70
2013,09,26,01,25,7.60
2013,09,26,01,26,7.50
2013,09,26,01,27,7.40
2013,09,26,01,28,7.40
2013,09,26,01,29,7.30
2013,09,26,01,30,7.30
2013,09,26,01,31,7.20
2013,09,26,01,32,7.20
2013,09,26,01,33,7.10
2013,09,26,01,34,7.10
2013,09,26,01,35,7.10
2013,09,26,01,36,7.10
2013,09,26,01,37,7.00
2013,09,26,01,38,7.00
2013,09,26,01,39,7.00
2013,09,26,01,40,7.00
2013,09,26,01,41,7.00
2013,09,26,01,42,7.00
2013,09,26,01,43,6.90
2013,09,26,01,44,6.90
2013,09,26,01,45,6.90
2013,09,26,01,46,7.00
2013,09,26,01,47,7.00
2013,09,26,01,48,7.00
2013,09,26,01,49,7.00
2013,09,26,01,50,7.10
2013,09,26,01,51,7.20
2013,09,26,01,52,7.30
2013,09,26,01,53,7.30
2013,09,26,01,54,7.30
2013,09,26,01,55,7.30
2013,09,26,01,56,7.30
2013,09,26,01,57,7.30
2013,09,26,01,58,7.40
2013,09,26,01,59,7.50
2013,09,26,02,00,7.50
2013,09,26,02,01,7.60
2013,09,26,02,02,7.70
2013,09,26,02,03,7.80
2013,09,26,02,04,7.80
2013,09,26,02,05,7.90
2013,09,26,02,06,7.90
2013,09,26,02,07,7.90
2013,09,26,02,08,7.90
2013,09,26,02,09,8.00
2013,09,26,02,10,8.10
2013,09,26,02,11,8.20
2013,09,26,02,12,8.20
2013,09,26,02,13,8.20
2013,09,26,02,14,8.10
2013,09,26,02,15,8.00
2013,09,26,02,16,8.00
2013,09,26,02,17,7.90
2013,09,26,02,18,7.90
2013,09,26,02,19,8.00
2013,09,26,02,20,8.00
2013,09,26,02,21,8.10
2013,09,26,02,22,8.20
2013,09,26,02,23,8.30
2013,09,26,02,24,8.40
2013,09,26,02,25,8.50
2013,09,26,02,26,8.50
2013,09,26,02,27,8.70
2013,09,26,02,28,8.80
2013,09,26,02,29,8.90
2013,09,26,02,30,9.00
2013,09,26,02,31,9.00
2013,09,26,02,32,9.10
2013,09,26,02,33,9.20
2013,09,26,02,34,9.10
2013,09,26,02,35,9.00
2013,09,26,02,36,8.80
2013,09,26,02,37,8.60
2013,09,26,02,38,8.40
2013,09,26,02,39,8.20
2013,09,26,02,40,8.10
2013,09,26,02,41,8.00
2013,09,26,02,42,7.90
2013,09,26,02,43,7.80
2013,09,26,02,44,7.80
2013,09,26,02,45,7.90
2013,09,26,02,46,7.90
2013,09,26,02,47,7.80
2013,09,26,02,48,7.80
2013,09,26,02,49,7.80
2013,09,26,02,50,7.70
2013,09,26,02,51,7.60
2013,09,26,02,52,7.60
2013,09,26,02,53,7.60
2013,09,26,02,54,7.60
2013,09,26,02,55,7.60
2013,09,26,02,56,7.60
2013,09,26,02,57,7.60
2013,09,26,02,58,7.60
2013,09,26,02,59,7.70
2013,09,26,03,00,7.80
2013,09,26,03,01,7.80
2013,09,26,03,02,7.80
2013,09,26,03,03,7.80
2013,09,26,03,04,7.80
2013,09,26,03,05,7.70
2013,09,26,03,06,7.70
2013,09,26,03,07,7.70
2013,09,26,03,08,7.70
2013,09,26,03,09,7.80
2013,09,26,03,10,7.80
2013,09,26,03,11,7.90
2013,09,26,03,12,7.90
2013,09,26,03,13,7.80
2013,09,26,03,14,7.80
2013,09,26,03,15,7.80
2013,09,26,03,16,7.70
2013,09,26,03,17,7.70
2013,09,26,03,18,7.60
2013,09,26,03,19,7.50
2013,09,26,03,20,7.50
2013,09,26,03,21,7.40
2013,09,26,03,22,7.30
2013,09,26,03,23,7.20
2013,09,26,03,24,7.20
2013,09,26,03,25,7.20
2013,09,26,03,26,7.10
2013,09,26,03,27,7.10
2013,09,26,03,28,7.10
2013,09,26,03,29,7.20
2013,09,26,03,30,7.20
2013,09,26,03,31,7.20
2013,09,26,03,32,7.10
2013,09,26,03,33,7.10
2013,09,26,03,34,7.20
2013,09,26,03,35,7.20
2013,09,26,03,36,7.30
2013,09,26,03,37,7.30
2013,09,26,03,38,7.40
2013,09,26,03,39,7.30
2013,09,26,03,40,7.20
2013,09,26,03,41,7.10
2013,09,26,03,42,6.90
2013,09,26,03,43,6.90
2013,09,26,03,44,6.80
2013,09,26,03,45,6.80
2013,09,26,03,46,6.80
2013,09,26,03,47,6.80
2013,09,26,03,48,6.80
2013,09,26,03,49,6.80
2013,09,26,03,50,6.70
2013,09,26,03,51,6.80
2013,09,26,03,52,6.80
2013,09,26,03,53,6.90
2013,09,26,03,54,6.90
2013,09,26,03,55,7.00
2013,09,26,03,56,7.10
2013,09,26,03,57,7.10
2013,09,26,03,58,7.10
2013,09,26,03,59,7.10
2013,09,26,04,00,7.10
2013,09,26,04,01,7.10
2013,09,26,04,02,7.10
2013,09,26,04,03,7.00
2013,09,26,04,04,7.00
2013,09,26,04,05,6.90
2013,09,26,04,06,6.80
2013,09,26,04,07,6.70
2013,09,26,04,08,6.60
2013,09,26,04,09,6.60
2013,09,26,04,10,6.60
2013,09,26,04,11,6.50
2013,09,26,04,12,6.60
2013,09,26,04,13,6.60
2013,09,26,04,14,6.60
2013,09,26,04,15,6.50
2013,09,26,04,16,6.50
2013,09,26,04,17,6.50
2013,09,26,04,18,6.60
2013,09,26,04,19,6.60
2013,09,26,04,20,6.60
2013,09,26,04,21,6.70
2013,09,26,04,22,6.70
2013,09,26,04,23,6.70
2013,09,26,04,24,6.70
2013,09,26,04,25,6.70
2013,09,26,04,26,6.70
2013,09,26,04,27,6.70
2013,09,26,04,28,6.60
2013,09,26,04,29,6.60
2013,09,26,04,30,6.70
2013,09,26,04,31,6.70
2013,09,26,04,32,6.90
2013,09,26,04,33,6.90
2013,09,26,04,34,6.90
2013,09,26,04,35,6.90
2013,09,26,04,36,6.90
2013,09,26,04,37,6.90
2013,09,26,04,38,6.80
2013,09,26,04,39,6.80
2013,09,26,04,40,6.80
2013,09,26,04,41,6.80
2013,09,26,04,42,6.70
2013,09,26,04,43,6.70
2013,09,26,04,44,6.60
2013,09,26,04,45,6.60
2013,09,26,04,46,6.60
2013,09,26,04,47,6.60
2013,09,26,04,48,6.50
2013,09,26,04,49,6.50
2013,09,26,04,50,6.50
2013,09,26,04,51,6.40
2013,09,26,04,52,6.40
2013,09,26,04,53,6.40
2013,09,26,04,54,6.40
2013,09,26,04,55,6.30
2013,09,26,04,56,6.30
2013,09,26,04,57,6.30
2013,09,26,04,58,6.40
2013,09,26,04,59,6.40
2013,09,26,05,00,6.40
2013,09,26,05,01,6.30
2013,09,26,05,02,6.30
2013,09,26,05,03,6.30
2013,09,26,05,04,6.20
2013,09,26,05,05,6.20
2013,09,26,05,06,6.30
2013,09,26,05,07,6.30
2013,09,26,05,08,6.30
2013,09,26,05,09,6.30
2013,09,26,05,10,6.30
2013,09,26,05,11,6.40
2013,09,26,05,12,6.30
2013,09,26,05,13,6.30
2013,09,26,05,14,6.30
2013,09,26,05,15,6.30
2013,09,26,05,16,6.40
2013,09,26,05,17,6.50
2013,09,26,05,18,6.50
2013,09,26,05,19,6.40
2013,09,26,05,20,6.40
2013,09,26,05,21,6.50
2013,09,26,05,22,6.50
2013,09,26,05,23,6.60
2013,09,26,05,24,6.70
2013,09,26,05,25,6.70
2013,09,26,05,26,6.80
2013,09,26,05,27,6.80
2013,09,26,05,28,6.80
2013,09,26,05,29,6.80
2013,09,26,05,30,6.80
2013,09,26,05,31,6.80
2013,09,26,05,32,6.70
2013,09,26,05,33,6.70
2013,09,26,05,34,6.70
2013,09,26,05,35,6.70
2013,09,26,05,36,6.70
2013,09,26,05,37,6.70
2013,09,26,05,38,6.70
2013,09,26,05,39,6.70
2013,09,26,05,40,6.70
2013,09,26,05,41,6.80
2013,09,26,05,42,6.80
2013,09,26,05,43,6.80
2013,09,26,05,44,6.80
2013,09,26,05,45,6.80
2013,09,26,05,46,6.80
2013,09,26,05,47,6.80
2013,09,26,05,48,6.80
2013,09,26,05,49,6.80
2013,09,26,05,50,6.80
2013,09,26,05,51,6.80
2013,09,26,05,52,6.80
2013,09,26,05,53,6.90
2013,09,26,05,54,6.90
2013,09,26,05,55,6.90
2013,09,26,05,56,6.80
2013,09,26,05,57,6.80
2013,09,26,05,58,6.70
2013,09,26,05,59,6.60
2013,09,26,06,00,6.60
2013,09,26,06,01,6.50
2013,09,26,06,02,6.40
2013,09,26,06,03,6.40
2013,09,26,06,04,6.50
2013,09,26,06,05,6.50
2013,09,26,06,06,6.40
2013,09,26,06,07,6.50
2013,09,26,06,08,6.60
2013,09,26,06,09,6.70
2013,09,26,06,10,6.70
2013,09,26,06,11,6.80
2013,09,26,06,12,6.80
2013,09,26,06,13,6.80
2013,09,26,06,14,6.80
2013,09,26,06,15,6.90
2013,09,26,06,16,6.90
2013,09,26,06,17,7.00
2013,09,26,06,18,7.10
2013,09,26,06,19,7.20
2013,09,26,06,20,7.20
2013,09,26,06,21,7.20
2013,09,26,06,22,7.20
2013,09,26,06,23,7.30
2013,09,26,06,24,7.30
2013,09,26,06,25,7.30
2013,09,26,06,26,7.40
2013,09,26,06,27,7.30
2013,09,26,06,28,7.40
2013,09,26,06,29,7.40
2013,09,26,06,30,7.40
2013,09,26,06,31,7.40
2013,09,26,06,32,7.50
2013,09,26,06,33,7.50
2013,09,26,06,34,7.50
2013,09,26,06,35,7.50
2013,09,26,06,36,7.50
2013,09,26,06,37,7.40
2013,09,26,06,38,7.40
2013,09,26,06,39,7.30
2013,09,26,06,40,7.20
2013,09,26,06,41,7.10
2013,09,26,06,42,7.20
2013,09,26,06,43,7.10
2013,09,26,06,44,7.10
2013,09,26,06,45,7.00
2013,09,26,06,46,7.00
2013,09,26,06,47,7.00
2013,09,26,06,48,7.00
2013,09,26,06,49,7.00
2013,09,26,06,50,6.90
2013,09,26,06,51,6.90
2013,09,26,06,52,6.90
2013,09,26,06,53,7.00
2013,09,26,06,54,7.00
2013,09,26,06,55,7.00
2013,09,26,06,56,7.00
2013,09,26,06,57,6.90
2013,09,26,06,58,6.90
2013,09,26,06,59,6.90
2013,09,26,07,00,6.90
2013,09,26,07,01,6.90
2013,09,26,07,02,6.90
2013,09,26,07,03,6.80
2013,09,26,07,04,6.80
2013,09,26,07,05,6.80
2013,09,26,07,06,6.90
2013,09,26,07,07,6.90
2013,09,26,07,08,6.90
2013,09,26,07,09,6.90
2013,09,26,07,10,6.90
2013,09,26,07,11,6.90
2013,09,26,07,12,6.90
2013,09,26,07,13,6.90
2013,09,26,07,14,6.90
2013,09,26,07,15,7.00
2013,09,26,07,16,7.00
2013,09,26,07,17,7.00
2013,09,26,07,18,7.10
2013,09,26,07,19,7.10
2013,09,26,07,20,7.20
2013,09,26,07,21,7.20
2013,09,26,07,22,7.30
2013,09,26,07,23,7.30
2013,09,26,07,24,7.30
2013,09,26,07,25,7.30
2013,09,26,07,26,7.30
2013,09,26,07,27,7.40
2013,09,26,07,28,7.40
2013,09,26,07,29,7.40
2013,09,26,07,30,7.50
2013,09,26,07,31,7.60
2013,09,26,07,32,7.60
2013,09,26,07,33,7.70
2013,09,26,07,34,7.80
2013,09,26,07,35,7.90
2013,09,26,07,36,7.90
2013,09,26,07,37,8.00
2013,09,26,07,38,8.10
2013,09,26,07,39,8.10
2013,09,26,07,40,8.20
2013,09,26,07,41,8.20
2013,09,26,07,42,8.20
2013,09,26,07,43,8.20
2013,09,26,07,44,8.20
2013,09,26,07,45,8.20
2013,09,26,07,46,8.30
2013,09,26,07,47,8.30
2013,09,26,07,48,8.40
2013,09,26,07,49,8.50
2013,09,26,07,50,8.60
2013,09,26,07,51,8.70
2013,09,26,07,52,8.80
2013,09,26,07,53,8.90
2013,09,26,07,54,8.90
2013,09,26,07,55,9.00
2013,09,26,07,56,9.00
2013,09,26,07,57,9.10
2013,09,26,07,58,9.10
2013,09,26,07,59,9.10
2013,09,26,08,00,9.10
2013,09,26,08,01,9.10
2013,09,26,08,02,9.20
2013,09,26,08,03,9.20
2013,09,26,08,04,9.20
2013,09,26,08,05,9.20
2013,09,26,08,06,9.20
2013,09,26,08,07,9.10
2013,09,26,08,08,9.10
2013,09,26,08,09,9.10
2013,09,26,08,10,9.10
2013,09,26,08,11,9.10
2013,09,26,08,12,9.10
2013,09,26,08,13,9.10
2013,09,26,08,14,9.20
2013,09,26,08,15,9.20
2013,09,26,08,16,9.20
2013,09,26,08,17,9.20
2013,09,26,08,18,9.20
2013,09,26,08,19,9.30
2013,09,26,08,20,9.20
2013,09,26,08,21,9.30
2013,09,26,08,22,9.30
2013,09,26,08,23,9.30
2013,09,26,08,24,9.30
2013,09,26,08,25,9.30
2013,09,26,08,26,9.30
2013,09,26,08,27,9.30
2013,09,26,08,28,9.30
2013,09,26,08,29,9.30
2013,09,26,08,30,9.40
2013,09,26,08,31,9.40
2013,09,26,08,32,9.50
2013,09,26,08,33,9.60
2013,09,26,08,34,9.60
2013,09,26,08,35,9.70
2013,09,26,08,36,9.70
2013,09,26,08,37,9.80
2013,09,26,08,38,9.80
2013,09,26,08,39,9.90
2013,09,26,08,40,9.90
2013,09,26,08,41,10.00
2013,09,26,08,42,10.10
2013,09,26,08,43,10.10
2013,09,26,08,44,10.20
2013,09,26,08,45,10.30
2013,09,26,08,46,10.30
2013,09,26,08,47,10.30
2013,09,26,08,48,10.40
2013,09,26,08,49,10.40
2013,09,26,08,50,10.50
2013,09,26,08,51,10.50
2013,09,26,08,52,10.60
2013,09,26,08,53,10.60
2013,09,26,08,54,10.70
2013,09,26,08,55,10.80
2013,09,26,08,56,10.90
2013,09,26,08,57,11.00
2013,09,26,08,58,11.00
2013,09,26,08,59,11.10
2013,09,26,09,00,11.10
2013,09,26,09,01,11.20
2013,09,26,09,02,11.20
2013,09,26,09,03,11.30
2013,09,26,09,04,11.30
2013,09,26,09,05,11.30
2013,09,26,09,06,11.40
2013,09,26,09,07,11.40
2013,09,26,09,08,11.50
2013,09,26,09,09,11.60
2013,09,26,09,10,11.60
2013,09,26,09,11,11.70
2013,09,26,09,12,11.70
2013,09,26,09,13,11.70
2013,09,26,09,14,11.80
2013,09,26,09,15,11.80
2013,09,26,09,16,11.80
2013,09,26,09,17,11.80
2013,09,26,09,18,11.90
2013,09,26,09,19,11.90
2013,09,26,09,20,11.90
2013,09,26,09,21,11.90
2013,09,26,09,22,11.90
2013,09,26,09,23,11.90
2013,09,26,09,24,11.90
2013,09,26,09,25,11.90
2013,09,26,09,26,11.90
2013,09,26,09,27,12.00
2013,09,26,09,28,12.00
2013,09,26,09,29,12.00
2013,09,26,09,30,12.00
2013,09,26,09,31,12.00
2013,09,26,09,32,12.00
2013,09,26,09,33,12.00
2013,09,26,09,34,12.10
2013,09,26,09,35,12.10
2013,09,26,09,36,12.10
2013,09,26,09,37,12.10
2013,09,26,09,38,12.20
2013,09,26,09,39,12.20
2013,09,26,09,40,12.20
2013,09,26,09,41,12.20
2013,09,26,09,42,12.30
2013,09,26,09,43,12.30
2013,09,26,09,44,12.30
2013,09,26,09,45,12.30
2013,09,26,09,46,12.30
2013,09,26,09,47,12.30
2013,09,26,09,48,12.40
2013,09,26,09,49,12.40
2013,09,26,09,50,12.40
2013,09,26,09,51,12.50
2013,09,26,09,52,12.40
2013,09,26,09,53,12.40
2013,09,26,09,54,12.40
2013,09,26,09,55,12.30
2013,09,26,09,56,12.30
2013,09,26,09,57,12.30
2013,09,26,09,58,12.30
2013,09,26,09,59,12.30
2013,09,26,10,00,12.30
2013,09,26,10,01,12.30
2013,09,26,10,02,12.40
2013,09,26,10,03,12.40
2013,09,26,10,04,12.40
2013,09,26,10,05,12.40
2013,09,26,10,06,12.40
2013,09,26,10,07,12.40
2013,09,26,10,08,12.40
2013,09,26,10,09,12.40
2013,09,26,10,10,12.40
2013,09,26,10,11,12.40
2013,09,26,10,12,12.50
2013,09,26,10,13,12.50
2013,09,26,10,14,12.60
2013,09,26,10,15,12.60
2013,09,26,10,16,12.50
2013,09,26,10,17,12.50
2013,09,26,10,18,12.50
2013,09,26,10,19,12.50
2013,09,26,10,20,12.60
2013,09,26,10,21,12.60
2013,09,26,10,22,12.60
2013,09,26,10,23,12.70
2013,09,26,10,24,12.70
2013,09,26,10,25,12.70
2013,09,26,10,26,12.70
2013,09,26,10,27,12.70
2013,09,26,10,28,12.70
2013,09,26,10,29,12.70
2013,09,26,10,30,12.60
2013,09,26,10,31,12.60
2013,09,26,10,32,12.60
2013,09,26,10,33,12.60
2013,09,26,10,34,12.50
2013,09,26,10,35,12.50
2013,09,26,10,36,12.50
2013,09,26,10,37,12.50
2013,09,26,10,38,12.50
2013,09,26,10,39,12.50
2013,09,26,10,40,12.60
2013,09,26,10,41,12.60
2013,09,26,10,42,12.70
2013,09,26,10,43,12.80
2013,09,26,10,44,12.80
2013,09,26,10,45,12.90
2013,09,26,10,46,13.00
2013,09,26,10,47,13.00
2013,09,26,10,48,13.10
2013,09,26,10,49,13.10
2013,09,26,10,50,13.00
2013,09,26,10,51,13.10
2013,09,26,10,52,13.10
2013,09,26,10,53,13.10
2013,09,26,10,54,13.10
2013,09,26,10,55,13.10
2013,09,26,10,56,13.20
2013,09,26,10,57,13.10
2013,09,26,10,58,13.10
2013,09,26,10,59,13.10
2013,09,26,11,00,13.20
2013,09,26,11,01,13.20
2013,09,26,11,02,13.30
2013,09,26,11,03,13.30
2013,09,26,11,04,13.40
2013,09,26,11,05,13.40
2013,09,26,11,06,13.40
2013,09,26,11,07,13.40
2013,09,26,11,08,13.40
2013,09,26,11,09,13.40
2013,09,26,11,10,13.40
2013,09,26,11,11,13.40
2013,09,26,11,12,13.50
2013,09,26,11,13,13.40
2013,09,26,11,14,13.40
2013,09,26,11,15,13.40
2013,09,26,11,16,13.30
2013,09,26,11,17,13.30
2013,09,26,11,18,13.20
2013,09,26,11,19,13.20
2013,09,26,11,20,13.20
2013,09,26,11,21,13.10
2013,09,26,11,22,13.10
2013,09,26,11,23,13.10
2013,09,26,11,24,13.10
2013,09,26,11,25,13.10
2013,09,26,11,26,13.10
2013,09,26,11,27,13.10
2013,09,26,11,28,13.10
2013,09,26,11,29,13.30
2013,09,26,11,30,13.40
2013,09,26,11,31,13.40
2013,09,26,11,32,13.30
2013,09,26,11,33,13.30
2013,09,26,11,34,13.20
2013,09,26,11,35,13.20
2013,09,26,11,36,13.30
2013,09,26,11,37,13.30
2013,09,26,11,38,13.30
2013,09,26,11,39,13.20
2013,09,26,11,40,13.10
2013,09,26,11,41,13.10
2013,09,26,11,42,13.00
2013,09,26,11,43,13.00
2013,09,26,11,44,13.00
2013,09,26,11,45,13.00
2013,09,26,11,46,12.90
2013,09,26,11,47,12.90
2013,09,26,11,48,12.90
2013,09,26,11,49,13.00
2013,09,26,11,50,13.00
2013,09,26,11,51,12.90
2013,09,26,11,52,13.00
2013,09,26,11,53,13.00
2013,09,26,11,54,13.00
2013,09,26,11,55,13.00
2013,09,26,11,56,13.10
2013,09,26,11,57,13.00
2013,09,26,11,58,13.10
2013,09,26,11,59,13.10
2013,09,26,12,00,13.10
2013,09,26,12,01,13.20
2013,09,26,12,02,13.20
2013,09,26,12,03,13.30
2013,09,26,12,04,13.40
2013,09,26,12,05,13.50
2013,09,26,12,06,13.70
2013,09,26,12,07,13.70
2013,09,26,12,08,13.80
2013,09,26,12,09,13.80
2013,09,26,12,10,13.80
2013,09,26,12,11,13.70
2013,09,26,12,12,13.70
2013,09,26,12,13,13.60
2013,09,26,12,14,13.60
2013,09,26,12,15,13.60
2013,09,26,12,16,13.70
2013,09,26,12,17,13.70
2013,09,26,12,18,13.70
2013,09,26,12,19,13.60
2013,09,26,12,20,13.60
2013,09,26,12,21,13.60
2013,09,26,12,22,13.70
2013,09,26,12,23,13.70
2013,09,26,12,24,13.80
2013,09,26,12,25,13.80
2013,09,26,12,26,13.80
2013,09,26,12,27,13.80
2013,09,26,12,28,13.80
2013,09,26,12,29,13.80
2013,09,26,12,30,13.80
2013,09,26,12,31,13.70
2013,09,26,12,32,13.60
2013,09,26,12,33,13.60
2013,09,26,12,34,13.60
2013,09,26,12,35,13.50
2013,09,26,12,36,13.50
2013,09,26,12,37,13.50
2013,09,26,12,38,13.40
2013,09,26,12,39,13.40
2013,09,26,12,40,13.40
2013,09,26,12,41,13.30
2013,09,26,12,42,13.30
2013,09,26,12,43,13.30
2013,09,26,12,44,13.20
2013,09,26,12,45,13.20
2013,09,26,12,46,13.20
2013,09,26,12,47,13.30
2013,09,26,12,48,13.30
2013,09,26,12,49,13.30
2013,09,26,12,50,13.30
2013,09,26,12,51,13.30
2013,09,26,12,52,13.30
2013,09,26,12,53,13.30
2013,09,26,12,54,13.40
2013,09,26,12,55,13.40
2013,09,26,12,56,13.50
2013,09,26,12,57,13.60
2013,09,26,12,58,13.60
2013,09,26,12,59,13.60
2013,09,26,13,00,13.60
2013,09,26,13,01,13.70
2013,09,26,13,02,13.60
2013,09,26,13,03,13.60
2013,09,26,13,04,13.60
2013,09,26,13,05,13.50
2013,09,26,13,06,13.40
2013,09,26,13,07,13.40
2013,09,26,13,08,13.40
2013,09,26,13,09,13.40
2013,09,26,13,10,13.40
2013,09,26,13,11,13.30
2013,09,26,13,12,13.40
2013,09,26,13,13,13.40
2013,09,26,13,14,13.40
2013,09,26,13,15,13.40
2013,09,26,13,16,13.40
2013,09,26,13,17,13.40
2013,09,26,13,18,13.50
2013,09,26,13,19,13.50
2013,09,26,13,20,13.50
2013,09,26,13,21,13.40
2013,09,26,13,22,13.40
2013,09,26,13,23,13.40
2013,09,26,13,24,13.40
2013,09,26,13,25,13.40
2013,09,26,13,26,13.30
2013,09,26,13,27,13.30
2013,09,26,13,28,13.30
2013,09,26,13,29,13.30
2013,09,26,13,30,13.30
2013,09,26,13,31,13.30
2013,09,26,13,32,13.30
2013,09,26,13,33,13.30
2013,09,26,13,34,13.30
2013,09,26,13,35,13.40
2013,09,26,13,36,13.40
2013,09,26,13,37,13.50
2013,09,26,13,38,13.60
2013,09,26,13,39,13.70
2013,09,26,13,40,13.70
2013,09,26,13,41,13.70
2013,09,26,13,42,13.70
2013,09,26,13,43,13.70
2013,09,26,13,44,13.70
2013,09,26,13,45,13.70
2013,09,26,13,46,13.70
2013,09,26,13,47,13.60
2013,09,26,13,48,13.60
2013,09,26,13,49,13.60
2013,09,26,13,50,13.60
2013,09,26,13,51,13.60
2013,09,26,13,52,13.60
2013,09,26,13,53,13.60
2013,09,26,13,54,13.60
2013,09,26,13,55,13.70
2013,09,26,13,56,13.70
2013,09,26,13,57,13.70
2013,09,26,13,58,13.70
2013,09,26,13,59,13.70
2013,09,26,14,00,13.70
2013,09,26,14,01,13.70
2013,09,26,14,02,13.70
2013,09,26,14,03,13.70
2013,09,26,14,04,13.70
2013,09,26,14,05,13.70
2013,09,26,14,06,13.70
2013,09,26,14,07,13.70
2013,09,26,14,08,13.80
2013,09,26,14,09,13.80
2013,09,26,14,10,13.90
2013,09,26,14,11,14.00
2013,09,26,14,12,14.10
2013,09,26,14,13,14.10
2013,09,26,14,14,14.10
2013,09,26,14,15,14.20
2013,09,26,14,16,14.20
2013,09,26,14,17,14.10
2013,09,26,14,18,14.10
2013,09,26,14,19,14.10
2013,09,26,14,20,14.00
2013,09,26,14,21,14.00
2013,09,26,14,22,14.00
2013,09,26,14,23,14.00
2013,09,26,14,24,14.00
2013,09,26,14,25,14.00
2013,09,26,14,26,14.10
2013,09,26,14,27,14.10
2013,09,26,14,28,14.10
2013,09,26,14,29,14.00
2013,09,26,14,30,14.00
2013,09,26,14,31,14.10
2013,09,26,14,32,14.10
2013,09,26,14,33,14.20
2013,09,26,14,34,14.20
2013,09,26,14,35,14.20
2013,09,26,14,36,14.20
2013,09,26,14,37,14.20
2013,09,26,14,38,14.30
2013,09,26,14,39,14.30
2013,09,26,14,40,14.30
2013,09,26,14,41,14.30
2013,09,26,14,42,14.30
2013,09,26,14,43,14.30
2013,09,26,14,44,14.40
2013,09,26,14,45,14.40
2013,09,26,14,46,14.40
2013,09,26,14,47,14.50
2013,09,26,14,48,14.50
2013,09,26,14,49,14.50
2013,09,26,14,50,14.50
2013,09,26,14,51,14.60
2013,09,26,14,52,14.60
2013,09,26,14,53,14.60
2013,09,26,14,54,14.70
2013,09,26,14,55,14.70
2013,09,26,14,56,14.70
2013,09,26,14,57,14.70
2013,09,26,14,58,14.70
2013,09,26,14,59,14.70
2013,09,26,15,00,14.80
2013,09,26,15,01,14.80
2013,09,26,15,02,14.90
2013,09,26,15,03,14.90
2013,09,26,15,04,15.00
2013,09,26,15,05,15.10
2013,09,26,15,06,15.10
2013,09,26,15,07,15.10
2013,09,26,15,08,15.10
2013,09,26,15,09,15.20
2013,09,26,15,10,15.20
2013,09,26,15,11,15.20
2013,09,26,15,12,15.20
2013,09,26,15,13,15.20
2013,09,26,15,14,15.20
2013,09,26,15,15,15.20
2013,09,26,15,16,15.20
2013,09,26,15,17,15.20
2013,09,26,15,18,15.20
2013,09,26,15,19,15.20
2013,09,26,15,20,15.20
2013,09,26,15,21,15.20
2013,09,26,15,22,15.30
2013,09,26,15,23,15.30
2013,09,26,15,24,15.30
2013,09,26,15,25,15.40
2013,09,26,15,26,15.40
2013,09,26,15,27,15.50
2013,09,26,15,28,15.50
2013,09,26,15,29,15.60
2013,09,26,15,30,15.60
2013,09,26,15,31,15.70
2013,09,26,15,32,15.70
2013,09,26,15,33,15.70
2013,09,26,15,34,15.80
2013,09,26,15,35,15.80
2013,09,26,15,36,15.90
2013,09,26,15,37,16.10
2013,09,26,15,38,16.10
2013,09,26,15,39,16.20
2013,09,26,15,40,16.20
2013,09,26,15,41,16.20
2013,09,26,15,42,16.20
2013,09,26,15,43,16.30
2013,09,26,15,44,16.20
2013,09,26,15,45,16.20
2013,09,26,15,46,16.10
2013,09,26,15,47,16.10
2013,09,26,15,48,16.00
2013,09,26,15,49,16.00
2013,09,26,15,50,15.90
2013,09,26,15,51,15.90
2013,09,26,15,52,15.80
2013,09,26,15,53,15.80
2013,09,26,15,54,15.80
2013,09,26,15,55,15.80
2013,09,26,15,56,15.80
2013,09,26,15,57,15.70
2013,09,26,15,58,15.70
2013,09,26,15,59,15.70
2013,09,26,16,00,15.70
2013,09,26,16,01,15.70
2013,09,26,16,02,15.70
2013,09,26,16,03,15.70
2013,09,26,16,04,15.80
2013,09,26,16,05,15.80
2013,09,26,16,06,15.80
2013,09,26,16,07,15.80
2013,09,26,16,08,15.80
2013,09,26,16,09,15.80
2013,09,26,16,10,15.80
2013,09,26,16,11,15.80
2013,09,26,16,12,15.80
2013,09,26,16,13,15.80
2013,09,26,16,14,15.80
2013,09,26,16,15,15.80
2013,09,26,16,16,15.80
2013,09,26,16,17,15.80
2013,09,26,16,18,15.70
2013,09,26,16,19,15.70
2013,09,26,16,20,15.70
2013,09,26,16,21,15.70
2013,09,26,16,22,15.70
2013,09,26,16,23,15.70
2013,09,26,16,24,15.70
2013,09,26,16,25,15.70
2013,09,26,16,26,15.80
2013,09,26,16,27,15.70
2013,09,26,16,28,15.70
2013,09,26,16,29,15.70
2013,09,26,16,30,15.70
2013,09,26,16,31,15.60
2013,09,26,16,32,15.60
2013,09,26,16,33,15.50
2013,09,26,16,34,15.50
2013,09,26,16,35,15.50
2013,09,26,16,36,15.50
2013,09,26,16,37,15.50
2013,09,26,16,38,15.50
2013,09,26,16,39,15.60
2013,09,26,16,40,15.60
2013,09,26,16,41,15.60
2013,09,26,16,42,15.60
2013,09,26,16,43,15.60
2013,09,26,16,44,15.60
2013,09,26,16,45,15.50
2013,09,26,16,46,15.50
2013,09,26,16,47,15.50
2013,09,26,16,48,15.40
2013,09,26,16,49,15.40
2013,09,26,16,50,15.40
2013,09,26,16,51,15.40
2013,09,26,16,52,15.40
2013,09,26,16,53,15.40
2013,09,26,16,54,15.50
2013,09,26,16,55,15.50
2013,09,26,16,56,15.50
2013,09,26,16,57,15.60
2013,09,26,16,58,15.60
2013,09,26,16,59,15.60
2013,09,26,17,00,15.60
2013,09,26,17,01,15.50
2013,09,26,17,02,15.50
2013,09,26,17,03,15.50
2013,09,26,17,04,15.50
2013,09,26,17,05,15.50
2013,09,26,17,06,15.50
2013,09,26,17,07,15.50
2013,09,26,17,08,15.50
2013,09,26,17,09,15.60
2013,09,26,17,10,15.60
2013,09,26,17,11,15.70
2013,09,26,17,12,15.70
2013,09,26,17,13,15.70
2013,09,26,17,14,15.70
2013,09,26,17,15,15.70
2013,09,26,17,16,15.70
2013,09,26,17,17,15.70
2013,09,26,17,18,15.70
2013,09,26,17,19,15.70
2013,09,26,17,20,15.70
2013,09,26,17,21,15.60
2013,09,26,17,22,15.60
2013,09,26,17,23,15.60
2013,09,26,17,24,15.60
2013,09,26,17,25,15.60
2013,09,26,17,26,15.60
2013,09,26,17,27,15.60
2013,09,26,17,28,15.60
2013,09,26,17,29,15.60
2013,09,26,17,30,15.60
2013,09,26,17,31,15.60
2013,09,26,17,32,15.60
2013,09,26,17,33,15.60
2013,09,26,17,34,15.50
2013,09,26,17,35,15.50
2013,09,26,17,36,15.50
2013,09,26,17,37,15.40
2013,09,26,17,38,15.50
2013,09,26,17,39,15.50
2013,09,26,17,40,15.50